Tracking 19199 objects as of 25-Jun-2018
HD Live streaming from Space Station
objects crossing your sky now

TEAMSAT

Track TEAMSAT now!
10-day predictions
TEAMSAT is classified as:


NORAD ID: 25025
Int'l Code: 1997-066C
Perigee: 585.9 km
Apogee: 26,584.6 km
Inclination: 7.6 °
Period: 467.6 minutes
Semi major axis: 19956 km
RCS: 0.5073 m2 (medium)
Launch date: October 30, 1997
Source: European Space Agency (ESA)
Launch site: FRENCH GUIANA (FRGUI)
aabbcc
Your satellite tracking list
Your tracking list is empty




NASA's NSSDC Master Catalog

Two Line Element Set (TLE):
1 25025U 97066C   18175.66354076 +.00000053 +00000-0 +83877-3 0  9995
2 25025 007.5795 193.9519 6513938 135.0893 297.6712 03.07953310045385
Source of the keplerian elements: AFSPC